Skip Page Navigation
NASA JPL Caltech
NASA Logo - Jet Propulsion Laboratory + View the NASA Portal
+ Near-Earth Object (NEO) Program
Search JPL
JPL Home Earth Solar System Stars & Galaxies Technology
JPL Solar System Dynamics
BODIES ORBITS EPHEMERIDES TOOLS PHYSICAL DATA DISCOVERY FAQ SITE MAP
JPL Small-Body Database Browser
Search: [ help ]  
79375 Valetti (1997 FA)
Classification: Main-belt Asteroid          SPK-ID: 2079375
Ephemeris | Orbit Diagram | Orbital Elements | Physical Parameters | Discovery Circumstances ]

[ show orbit diagram ]
Orbital Elements at Epoch 2456400.5 (2013-Apr-18.0) TDB
Reference: MPO250890 (heliocentric ecliptic J2000)
 Element Value Uncertainty (1-sigma)   Units 
e 0.1972880 n/a  
a 2.3087738 n/a AU
q 1.8532804 n/a AU
i 0.97876 n/a deg
node 176.27456 n/a deg
peri 38.33472 n/a deg
M 183.72380 n/a deg
tp 2457027.9248144
(2015-Jan-05.42481440)
n/a JED
period 1281.3580801
3.51
n/a
n/a
d
yr
n 0.28095191 n/a deg/d
Q 2.7642672 n/a AU
  Orbit Determination Parameters
   # obs. used (total)      380  
   first obs. used      1997-??-??  
   last obs. used      2012-12-10  
   # oppositions      11  
   planetary ephem.      DE403  
   condition code      1  
   fit RMS      0.60  
   data source      MPC:mpn  
   producer      MPCLINUX  

Additional Information
 T_jup = 3.560 

Ephemeris | Orbit Diagram | Orbital Elements | Physical Parameters | Discovery Circumstances ]

Physical Parameter Table
Parameter Symbol Value Units Sigma Reference Notes
absolute magnitude H 15.8 mag n/a MPO250890  

79375 Valetti           Discovered 1997 Mar. 16 by V. Goretti at Pianoro.
Alvero Valetti (1923-2005), an Italian mathematician and physicist, was a teacher at the Calini Senior High School in Brescia. Director of Specola Cidnea from 1970 to 1985, he was an expert in chronology and sundials, and he prepared the yearbook of the Brescia Observatory. The name was suggested by U. Quadri.
NOTE: some special characters may not display properly (any characters within {} are an attempt to place the proper accent above a character)
Reference: 20060809/MPCPages.arcLast Updated: 2007-08-08

Alternate Designations
 1997 FA = 1998 TC7 
Ephemeris | Orbit Diagram | Orbital Elements | Physical Parameters | Discovery Circumstances ]
ABOUT SSD CREDITS/AWARDS PRIVACY/COPYRIGHT GLOSSARY LINKS
FirstGov 2013-May-21 10:14 UT
(server date/time)  
NASA Home Page
Site Manager:   Donald K. Yeomans
Webmaster  Alan B. Chamberlin